owner,sensor,date,latitude,longitude,vertical_datum,sea_water_practical_salinity,qcFlag 
SCCF RECON,ioos:station:SCCF:13:1,2009-12-01T00:00:00Z,26.5255,-82.0032,2.6,31.61,1111122 
SCCF RECON,ioos:station:SCCF:13:1,2009-12-01T01:00:00Z,26.5255,-82.0032,2.69,31.13,1111122 
SCCF RECON,ioos:station:SCCF:13:1,2009-12-01T02:00:00Z,26.5255,-82.0032,2.76,31.19,1111122 
SCCF RECON,ioos:station:SCCF:13:1,2009-12-01T03:00:00Z,26.5255,-82.0032,2.82,32.04,1111122 
SCCF RECON,ioos:station:SCCF:13:1,2009-12-01T04:00:00Z,26.5255,-82.0032,2.85,32.74,1111122 
SCCF RECON,ioos:station:SCCF:13:1,2009-12-01T05:00:00Z,26.5255,-82.0032,2.857,33.09,1111122 
SCCF RECON,ioos:station:SCCF:13:1,2009-12-01T06:00:00Z,26.5255,-82.0032,2.77,33.21,1111122 
SCCF RECON,ioos:station:SCCF:13:1,2009-12-01T07:00:00Z,26.5255,-82.0032,2.64,33.12,1111122 
SCCF RECON,ioos:station:SCCF:13:1,2009-12-01T08:00:00Z,26.5255,-82.0032,2.52,32.19,1111122 
SCCF RECON,ioos:station:SCCF:13:1,2009-12-01T09:00:00Z,26.5255,-82.0032,2.419,31.08,1111122 
SCCF RECON,ioos:station:SCCF:13:1,2009-12-01T10:00:00Z,26.5255,-82.0032,2.318,30.07,1111122 
SCCF RECON,ioos:station:SCCF:13:1,2009-12-01T11:00:00Z,26.5255,-82.0032,2.22,29.5,1111122 
SCCF RECON,ioos:station:SCCF:13:1,2009-12-01T12:00:00Z,26.5255,-82.0032,2.153,28.83,1111122 
SCCF RECON,ioos:station:SCCF:13:1,2009-12-01T13:00:00Z,26.5255,-82.0032,2.16,28.04,1111122 
SCCF RECON,ioos:station:SCCF:13:1,2009-12-01T14:00:00Z,26.5255,-82.0032,2.29,27.5,1111122 
SCCF RECON,ioos:station:SCCF:13:1,2009-12-01T15:00:00Z,26.5255,-82.0032,2.391,27.23,1111122 
SCCF RECON,ioos:station:SCCF:13:1,2009-12-01T16:00:00Z,26.5255,-82.0032,2.47,27.99,1111122 
SCCF RECON,ioos:station:SCCF:13:1,2009-12-01T17:00:00Z,26.5255,-82.0032,2.54,29.18,1111122 
SCCF RECON,ioos:station:SCCF:13:1,2009-12-01T18:00:00Z,26.5255,-82.0032,2.578,30.03,1111122 
SCCF RECON,ioos:station:SCCF:13:1,2009-12-01T19:00:00Z,26.5255,-82.0032,2.58,31.93,1111122 
SCCF RECON,ioos:station:SCCF:13:1,2009-12-01T20:00:00Z,26.5255,-82.0032,2.53,32.04,1111122 
SCCF RECON,ioos:station:SCCF:13:1,2009-12-01T21:00:00Z,26.5255,-82.0032,2.49,32.03,1111122 
SCCF RECON,ioos:station:SCCF:13:1,2009-12-01T22:00:00Z,26.5255,-82.0032,2.48,32.03,1111122 
SCCF RECON,ioos:station:SCCF:13:1,2009-12-01T23:00:00Z,26.5255,-82.0032,2.49,31.98,1111122 
SCCF RECON,ioos:station:SCCF:13:1,2009-12-02T00:00:00Z,26.5255,-82.0032,2.54,31.85,1111122 
SCCF RECON,ioos:station:SCCF:13:1,2009-12-02T01:00:00Z,26.5255,-82.0032,2.64,31.46,1111122 
SCCF RECON,ioos:station:SCCF:13:1,2009-12-02T02:00:00Z,26.5255,-82.0032,2.74,31.71,1111122 
SCCF RECON,ioos:station:SCCF:13:1,2009-12-02T03:00:00Z,26.5255,-82.0032,2.826,32.66,1111122 
SCCF RECON,ioos:station:SCCF:13:1,2009-12-02T04:00:00Z,26.5255,-82.0032,2.88,33.32,1111122 
SCCF RECON,ioos:station:SCCF:13:1,2009-12-02T05:00:00Z,26.5255,-82.0032,2.896,33.51,1111122 
SCCF RECON,ioos:station:SCCF:13:1,2009-12-02T06:00:00Z,26.5255,-82.0032,2.865,33.25,1111122 
SCCF RECON,ioos:station:SCCF:13:1,2009-12-02T07:00:00Z,26.5255,-82.0032,2.78,33.22,1111122 
SCCF RECON,ioos:station:SCCF:13:1,2009-12-02T08:00:00Z,26.5255,-82.0032,2.65,33.28,1111122 
SCCF RECON,ioos:station:SCCF:13:1,2009-12-02T09:00:00Z,26.5255,-82.0032,2.53,32.97,1111122 
SCCF RECON,ioos:station:SCCF:13:1,2009-12-02T10:00:00Z,26.5255,-82.0032,2.424,32.06,1111122 
SCCF RECON,ioos:station:SCCF:13:1,2009-12-02T11:00:00Z,26.5255,-82.0032,2.32,32.18,1111122 
SCCF RECON,ioos:station:SCCF:13:1,2009-12-02T12:00:00Z,26.5255,-82.0032,2.23,30.75,1111122 
SCCF RECON,ioos:station:SCCF:13:1,2009-12-02T13:00:00Z,26.5255,-82.0032,2.18,29.65,1111122 
SCCF RECON,ioos:station:SCCF:13:1,2009-12-02T14:00:00Z,26.5255,-82.0032,2.25,29.05,1111122 
SCCF RECON,ioos:station:SCCF:13:1,2009-12-02T15:00:00Z,26.5255,-82.0032,2.42,28.71,1111122 
SCCF RECON,ioos:station:SCCF:13:1,2009-12-02T16:00:00Z,26.5255,-82.0032,2.506,29.98,1111122 
SCCF RECON,ioos:station:SCCF:13:1,2009-12-02T17:00:00Z,26.5255,-82.0032,2.555,30.51,1111122 
SCCF RECON,ioos:station:SCCF:13:1,2009-12-02T18:00:00Z,26.5255,-82.0032,2.6,31.77,1111122 
SCCF RECON,ioos:station:SCCF:13:1,2009-12-02T19:00:00Z,26.5255,-82.0032,2.64,32.93,1111122 
SCCF RECON,ioos:station:SCCF:13:1,2009-12-02T20:00:00Z,26.5255,-82.0032,2.647,32.84,1111122 
SCCF RECON,ioos:station:SCCF:13:1,2009-12-02T21:00:00Z,26.5255,-82.0032,2.641,32.86,1111122 
SCCF RECON,ioos:station:SCCF:13:1,2009-12-02T22:00:00Z,26.5255,-82.0032,2.65,33.07,1111122 
SCCF RECON,ioos:station:SCCF:13:1,2009-12-02T23:00:00Z,26.5255,-82.0032,2.62,32.99,1111122 
SCCF RECON,ioos:station:SCCF:13:1,2009-12-03T00:00:00Z,26.5255,-82.0032,2.62,32.91,1111122 
SCCF RECON,ioos:station:SCCF:13:1,2009-12-03T01:00:00Z,26.5255,-82.0032,2.68,32.93,1111122 
SCCF RECON,ioos:station:SCCF:13:1,2009-12-03T02:00:00Z,26.5255,-82.0032,2.77,32.96,1111122 
SCCF RECON,ioos:station:SCCF:13:1,2009-12-03T03:00:00Z,26.5255,-82.0032,2.82,33.0,1111122 
SCCF RECON,ioos:station:SCCF:13:1,2009-12-03T04:00:00Z,26.5255,-82.0032,2.881,33.39,1111122 
SCCF RECON,ioos:station:SCCF:13:1,2009-12-03T05:00:00Z,26.5255,-82.0032,2.914,33.61,1111122 
SCCF RECON,ioos:station:SCCF:13:1,2009-12-03T06:00:00Z,26.5255,-82.0032,2.92,33.58,1111122 
SCCF RECON,ioos:station:SCCF:13:1,2009-12-03T07:00:00Z,26.5255,-82.0032,2.87,33.54,1111122 
SCCF RECON,ioos:station:SCCF:13:1,2009-12-03T08:00:00Z,26.5255,-82.0032,2.763,33.41,1111122 
SCCF RECON,ioos:station:SCCF:13:1,2009-12-03T09:00:00Z,26.5255,-82.0032,2.65,33.47,1111122 
SCCF RECON,ioos:station:SCCF:13:1,2009-12-03T10:00:00Z,26.5255,-82.0032,2.532,33.54,1111122 
SCCF RECON,ioos:station:SCCF:13:1,2009-12-03T11:00:00Z,26.5255,-82.0032,2.423,32.89,1111122 
SCCF RECON,ioos:station:SCCF:13:1,2009-12-03T12:00:00Z,26.5255,-82.0032,2.321,32.45,1111122 
SCCF RECON,ioos:station:SCCF:13:1,2009-12-03T13:00:00Z,26.5255,-82.0032,2.24,32.01,1111122 
SCCF RECON,ioos:station:SCCF:13:1,2009-12-03T14:00:00Z,26.5255,-82.0032,2.204,31.06,1111122 
SCCF RECON,ioos:station:SCCF:13:1,2009-12-03T15:00:00Z,26.5255,-82.0032,2.25,30.22,1111122 
SCCF RECON,ioos:station:SCCF:13:1,2009-12-03T16:00:00Z,26.5255,-82.0032,2.38,29.55,1111122 
SCCF RECON,ioos:station:SCCF:13:1,2009-12-03T17:00:00Z,26.5255,-82.0032,2.46,29.41,1111122 
SCCF RECON,ioos:station:SCCF:13:1,2009-12-03T18:00:00Z,26.5255,-82.0032,2.511,29.9,1111122 
SCCF RECON,ioos:station:SCCF:13:1,2009-12-03T19:00:00Z,26.5255,-82.0032,2.55,31.37,1111122 
SCCF RECON,ioos:station:SCCF:13:1,2009-12-03T20:00:00Z,26.5255,-82.0032,2.55,31.67,1111122 
SCCF RECON,ioos:station:SCCF:13:1,2009-12-03T21:00:00Z,26.5255,-82.0032,2.536,31.9,1111122 
SCCF RECON,ioos:station:SCCF:13:1,2009-12-03T22:00:00Z,26.5255,-82.0032,2.51,32.85,1111122 
SCCF RECON,ioos:station:SCCF:13:1,2009-12-03T23:00:00Z,26.5255,-82.0032,2.47,32.77,1111122 
SCCF RECON,ioos:station:SCCF:13:1,2009-12-04T00:00:00Z,26.5255,-82.0032,2.43,31.12,1111122 
SCCF RECON,ioos:station:SCCF:13:1,2009-12-04T01:00:00Z,26.5255,-82.0032,2.43,30.32,1111122 
SCCF RECON,ioos:station:SCCF:13:1,2009-12-04T02:00:00Z,26.5255,-82.0032,2.5,29.8,1111122 
SCCF RECON,ioos:station:SCCF:13:1,2009-12-04T03:00:00Z,26.5255,-82.0032,2.61,30.45,1111122 
SCCF RECON,ioos:station:SCCF:13:1,2009-12-04T04:00:00Z,26.5255,-82.0032,2.69,31.07,1111122 
SCCF RECON,ioos:station:SCCF:13:1,2009-12-04T05:00:00Z,26.5255,-82.0032,2.749,32.29,1111122 
SCCF RECON,ioos:station:SCCF:13:1,2009-12-04T06:00:00Z,26.5255,-82.0032,2.787,32.98,1111122 
SCCF RECON,ioos:station:SCCF:13:1,2009-12-04T07:00:00Z,26.5255,-82.0032,2.753,33.46,1111122 
SCCF RECON,ioos:station:SCCF:13:1,2009-12-04T08:00:00Z,26.5255,-82.0032,2.665,33.61,1111122 
SCCF RECON,ioos:station:SCCF:13:1,2009-12-04T09:00:00Z,26.5255,-82.0032,2.55,33.52,1111122 
SCCF RECON,ioos:station:SCCF:13:1,2009-12-04T10:00:00Z,26.5255,-82.0032,2.45,32.4,1111122 
SCCF RECON,ioos:station:SCCF:13:1,2009-12-04T11:00:00Z,26.5255,-82.0032,2.343,30.73,1111122 
SCCF RECON,ioos:station:SCCF:13:1,2009-12-04T12:00:00Z,26.5255,-82.0032,2.24,29.41,1111122 
SCCF RECON,ioos:station:SCCF:13:1,2009-12-04T13:00:00Z,26.5255,-82.0032,2.14,28.13,1111122 
SCCF RECON,ioos:station:SCCF:13:1,2009-12-04T14:00:00Z,26.5255,-82.0032,2.05,27.45,1111122 
SCCF RECON,ioos:station:SCCF:13:1,2009-12-04T15:00:00Z,26.5255,-82.0032,2.006,26.79,1111122 
SCCF RECON,ioos:station:SCCF:13:1,2009-12-04T16:00:00Z,26.5255,-82.0032,2.09,25.9,1111122 
SCCF RECON,ioos:station:SCCF:13:1,2009-12-04T17:00:00Z,26.5255,-82.0032,2.24,25.29,1111122 
SCCF RECON,ioos:station:SCCF:13:1,2009-12-04T18:00:00Z,26.5255,-82.0032,2.3,25.6,1111122 
SCCF RECON,ioos:station:SCCF:13:1,2009-12-04T19:00:00Z,26.5255,-82.0032,2.34,27.0,1111122 
SCCF RECON,ioos:station:SCCF:13:1,2009-12-04T20:00:00Z,26.5255,-82.0032,2.39,27.96,1111122 
SCCF RECON,ioos:station:SCCF:13:1,2009-12-04T21:00:00Z,26.5255,-82.0032,2.43,29.25,1111122 
SCCF RECON,ioos:station:SCCF:13:1,2009-12-04T22:00:00Z,26.5255,-82.0032,2.409,30.69,1111122 
SCCF RECON,ioos:station:SCCF:13:1,2009-12-04T23:00:00Z,26.5255,-82.0032,2.33,29.81,1111122 
SCCF RECON,ioos:station:SCCF:13:1,2009-12-05T00:00:00Z,26.5255,-82.0032,2.279,28.59,1111122 
SCCF RECON,ioos:station:SCCF:13:1,2009-12-05T01:00:00Z,26.5255,-82.0032,2.26,27.27,1111122 
SCCF RECON,ioos:station:SCCF:13:1,2009-12-05T02:00:00Z,26.5255,-82.0032,2.249,26.15,1111122 
SCCF RECON,ioos:station:SCCF:13:1,2009-12-05T03:00:00Z,26.5255,-82.0032,2.323,25.18,1111122 
SCCF RECON,ioos:station:SCCF:13:1,2009-12-05T04:00:00Z,26.5255,-82.0032,2.47,27.36,1111122 
SCCF RECON,ioos:station:SCCF:13:1,2009-12-05T05:00:00Z,26.5255,-82.0032,2.57,29.23,1111122 
SCCF RECON,ioos:station:SCCF:13:1,2009-12-05T06:00:00Z,26.5255,-82.0032,2.612,31.19,1111122 
SCCF RECON,ioos:station:SCCF:13:1,2009-12-05T07:00:00Z,26.5255,-82.0032,2.64,31.98,1111122 
SCCF RECON,ioos:station:SCCF:13:1,2009-12-05T08:00:00Z,26.5255,-82.0032,2.63,32.34,1111122 
SCCF RECON,ioos:station:SCCF:13:1,2009-12-05T09:00:00Z,26.5255,-82.0032,2.61,32.56,1111122 
SCCF RECON,ioos:station:SCCF:13:1,2009-12-05T10:00:00Z,26.5255,-82.0032,2.51,32.6,1111122 
SCCF RECON,ioos:station:SCCF:13:1,2009-12-05T11:00:00Z,26.5255,-82.0032,2.39,32.43,1111122 
SCCF RECON,ioos:station:SCCF:13:1,2009-12-05T12:00:00Z,26.5255,-82.0032,2.29,28.72,1111122 
SCCF RECON,ioos:station:SCCF:13:1,2009-12-05T13:00:00Z,26.5255,-82.0032,2.205,27.79,1111122 
SCCF RECON,ioos:station:SCCF:13:1,2009-12-05T14:00:00Z,26.5255,-82.0032,2.137,27.24,1111122 
SCCF RECON,ioos:station:SCCF:13:1,2009-12-05T15:00:00Z,26.5255,-82.0032,2.1,26.63,1111122 
SCCF RECON,ioos:station:SCCF:13:1,2009-12-05T16:00:00Z,26.5255,-82.0032,2.172,26.15,1111122 
SCCF RECON,ioos:station:SCCF:13:1,2009-12-05T17:00:00Z,26.5255,-82.0032,2.274,26.01,1111122 
SCCF RECON,ioos:station:SCCF:13:1,2009-12-05T18:00:00Z,26.5255,-82.0032,2.349,26.23,1111122 
SCCF RECON,ioos:station:SCCF:13:1,2009-12-05T19:00:00Z,26.5255,-82.0032,2.391,26.89,1111122 
SCCF RECON,ioos:station:SCCF:13:1,2009-12-05T20:00:00Z,26.5255,-82.0032,2.403,27.64,1111122 
SCCF RECON,ioos:station:SCCF:13:1,2009-12-05T21:00:00Z,26.5255,-82.0032,2.327,27.77,1111122 
SCCF RECON,ioos:station:SCCF:13:1,2009-12-05T22:00:00Z,26.5255,-82.0032,2.34,27.3,1111122 
SCCF RECON,ioos:station:SCCF:13:1,2009-12-05T23:00:00Z,26.5255,-82.0032,2.35,27.09,1111122 
SCCF RECON,ioos:station:SCCF:13:1,2009-12-06T00:00:00Z,26.5255,-82.0032,2.26,26.11,1111122 
SCCF RECON,ioos:station:SCCF:13:1,2009-12-06T01:00:00Z,26.5255,-82.0032,2.2,25.87,1111122 
SCCF RECON,ioos:station:SCCF:13:1,2009-12-06T02:00:00Z,26.5255,-82.0032,2.15,25.37,1111122 
SCCF RECON,ioos:station:SCCF:13:1,2009-12-06T03:00:00Z,26.5255,-82.0032,2.15,24.46,1111122 
SCCF RECON,ioos:station:SCCF:13:1,2009-12-06T04:00:00Z,26.5255,-82.0032,2.188,24.01,1111122 
SCCF RECON,ioos:station:SCCF:13:1,2009-12-06T05:00:00Z,26.5255,-82.0032,2.35,24.39,1111122 
SCCF RECON,ioos:station:SCCF:13:1,2009-12-06T06:00:00Z,26.5255,-82.0032,2.43,25.59,1111122 
SCCF RECON,ioos:station:SCCF:13:1,2009-12-06T07:00:00Z,26.5255,-82.0032,2.464,26.03,1111122 
SCCF RECON,ioos:station:SCCF:13:1,2009-12-06T08:00:00Z,26.5255,-82.0032,2.49,27.29,1111122 
SCCF RECON,ioos:station:SCCF:13:1,2009-12-06T09:00:00Z,26.5255,-82.0032,2.48,28.39,1111122 
SCCF RECON,ioos:station:SCCF:13:1,2009-12-06T10:00:00Z,26.5255,-82.0032,2.42,29.45,1111122 
SCCF RECON,ioos:station:SCCF:13:1,2009-12-06T11:00:00Z,26.5255,-82.0032,2.35,29.38,1111122 
SCCF RECON,ioos:station:SCCF:13:1,2009-12-06T12:00:00Z,26.5255,-82.0032,2.28,27.31,1111122 
SCCF RECON,ioos:station:SCCF:13:1,2009-12-06T13:00:00Z,26.5255,-82.0032,2.21,26.5,1111122 
SCCF RECON,ioos:station:SCCF:13:1,2009-12-06T14:00:00Z,26.5255,-82.0032,2.13,25.32,1111122 
SCCF RECON,ioos:station:SCCF:13:1,2009-12-06T15:00:00Z,26.5255,-82.0032,2.052,24.53,1111122 
SCCF RECON,ioos:station:SCCF:13:1,2009-12-06T16:00:00Z,26.5255,-82.0032,2.01,23.64,1111122 
SCCF RECON,ioos:station:SCCF:13:1,2009-12-06T17:00:00Z,26.5255,-82.0032,2.05,22.84,1111122 
SCCF RECON,ioos:station:SCCF:13:1,2009-12-06T18:00:00Z,26.5255,-82.0032,2.17,22.5,1111122 
SCCF RECON,ioos:station:SCCF:13:1,2009-12-06T19:00:00Z,26.5255,-82.0032,2.253,22.79,1111122 
SCCF RECON,ioos:station:SCCF:13:1,2009-12-06T20:00:00Z,26.5255,-82.0032,2.32,24.73,1111122 
SCCF RECON,ioos:station:SCCF:13:1,2009-12-06T21:00:00Z,26.5255,-82.0032,2.403,26.02,1111122 
SCCF RECON,ioos:station:SCCF:13:1,2009-12-06T22:00:00Z,26.5255,-82.0032,2.479,28.01,1111122 
SCCF RECON,ioos:station:SCCF:13:1,2009-12-06T23:00:00Z,26.5255,-82.0032,2.49,29.29,1111122 
SCCF RECON,ioos:station:SCCF:13:1,2009-12-07T00:00:00Z,26.5255,-82.0032,2.45,29.3,1111122 
SCCF RECON,ioos:station:SCCF:13:1,2009-12-07T01:00:00Z,26.5255,-82.0032,2.4,29.35,1111122 
SCCF RECON,ioos:station:SCCF:13:1,2009-12-07T02:00:00Z,26.5255,-82.0032,2.33,29.35,1111122 
SCCF RECON,ioos:station:SCCF:13:1,2009-12-07T03:00:00Z,26.5255,-82.0032,2.31,28.21,1111122 
SCCF RECON,ioos:station:SCCF:13:1,2009-12-07T04:00:00Z,26.5255,-82.0032,2.34,27.25,1111122 
SCCF RECON,ioos:station:SCCF:13:1,2009-12-07T05:00:00Z,26.5255,-82.0032,2.41,27.1,1111122 
SCCF RECON,ioos:station:SCCF:13:1,2009-12-07T06:00:00Z,26.5255,-82.0032,2.49,28.08,1111122 
SCCF RECON,ioos:station:SCCF:13:1,2009-12-07T07:00:00Z,26.5255,-82.0032,2.54,28.35,1111122 
SCCF RECON,ioos:station:SCCF:13:1,2009-12-07T08:00:00Z,26.5255,-82.0032,2.575,29.02,1111122 
SCCF RECON,ioos:station:SCCF:13:1,2009-12-07T09:00:00Z,26.5255,-82.0032,2.608,29.72,1111122 
SCCF RECON,ioos:station:SCCF:13:1,2009-12-07T10:00:00Z,26.5255,-82.0032,2.61,30.39,1111122 
SCCF RECON,ioos:station:SCCF:13:1,2009-12-07T11:00:00Z,26.5255,-82.0032,2.571,30.94,1111122 
SCCF RECON,ioos:station:SCCF:13:1,2009-12-07T12:00:00Z,26.5255,-82.0032,2.5,31.17,1111122 
SCCF RECON,ioos:station:SCCF:13:1,2009-12-07T13:00:00Z,26.5255,-82.0032,2.42,29.65,1111122 
SCCF RECON,ioos:station:SCCF:13:1,2009-12-07T14:00:00Z,26.5255,-82.0032,2.333,27.65,1111122 
SCCF RECON,ioos:station:SCCF:13:1,2009-12-07T15:00:00Z,26.5255,-82.0032,2.251,27.04,1111122 
SCCF RECON,ioos:station:SCCF:13:1,2009-12-07T16:00:00Z,26.5255,-82.0032,2.18,25.83,1111122 
SCCF RECON,ioos:station:SCCF:13:1,2009-12-07T17:00:00Z,26.5255,-82.0032,2.14,25.29,1111122 
SCCF RECON,ioos:station:SCCF:13:1,2009-12-07T18:00:00Z,26.5255,-82.0032,2.192,24.88,1111122 
SCCF RECON,ioos:station:SCCF:13:1,2009-12-07T19:00:00Z,26.5255,-82.0032,2.32,24.29,1111122 
SCCF RECON,ioos:station:SCCF:13:1,2009-12-07T20:00:00Z,26.5255,-82.0032,2.38,25.05,1111122 
SCCF RECON,ioos:station:SCCF:13:1,2009-12-07T21:00:00Z,26.5255,-82.0032,2.428,26.22,1111122 
SCCF RECON,ioos:station:SCCF:13:1,2009-12-07T22:00:00Z,26.5255,-82.0032,2.466,27.07,1111122 
SCCF RECON,ioos:station:SCCF:13:1,2009-12-07T23:00:00Z,26.5255,-82.0032,2.5,28.88,1111122 
SCCF RECON,ioos:station:SCCF:13:1,2009-12-08T00:00:00Z,26.5255,-82.0032,2.511,29.87,1111122 
SCCF RECON,ioos:station:SCCF:13:1,2009-12-08T01:00:00Z,26.5255,-82.0032,2.47,30.45,1111122 
SCCF RECON,ioos:station:SCCF:13:1,2009-12-08T02:00:00Z,26.5255,-82.0032,2.39,30.42,1111122 
SCCF RECON,ioos:station:SCCF:13:1,2009-12-08T03:00:00Z,26.5255,-82.0032,2.33,28.68,1111122 
SCCF RECON,ioos:station:SCCF:13:1,2009-12-08T04:00:00Z,26.5255,-82.0032,2.29,26.6,1111122 
SCCF RECON,ioos:station:SCCF:13:1,2009-12-08T05:00:00Z,26.5255,-82.0032,2.283,25.92,1111122 
SCCF RECON,ioos:station:SCCF:13:1,2009-12-08T06:00:00Z,26.5255,-82.0032,2.33,24.45,1111122 
SCCF RECON,ioos:station:SCCF:13:1,2009-12-08T07:00:00Z,26.5255,-82.0032,2.39,24.63,1111122 
SCCF RECON,ioos:station:SCCF:13:1,2009-12-08T08:00:00Z,26.5255,-82.0032,2.45,27.06,1111122 
SCCF RECON,ioos:station:SCCF:13:1,2009-12-08T09:00:00Z,26.5255,-82.0032,2.5,27.6,1111122 
SCCF RECON,ioos:station:SCCF:13:1,2009-12-08T10:00:00Z,26.5255,-82.0032,2.543,28.61,1111122 
SCCF RECON,ioos:station:SCCF:13:1,2009-12-08T11:00:00Z,26.5255,-82.0032,2.571,29.81,1111122 
SCCF RECON,ioos:station:SCCF:13:1,2009-12-08T12:00:00Z,26.5255,-82.0032,2.562,30.64,1111122 
SCCF RECON,ioos:station:SCCF:13:1,2009-12-08T13:00:00Z,26.5255,-82.0032,2.51,31.29,1111122 
SCCF RECON,ioos:station:SCCF:13:1,2009-12-08T14:00:00Z,26.5255,-82.0032,2.44,31.15,1111122 
SCCF RECON,ioos:station:SCCF:13:1,2009-12-08T15:00:00Z,26.5255,-82.0032,2.359,28.71,1111122 
SCCF RECON,ioos:station:SCCF:13:1,2009-12-08T16:00:00Z,26.5255,-82.0032,2.29,26.62,1111122 
SCCF RECON,ioos:station:SCCF:13:1,2009-12-08T17:00:00Z,26.5255,-82.0032,2.25,25.96,1111122 
SCCF RECON,ioos:station:SCCF:13:1,2009-12-08T18:00:00Z,26.5255,-82.0032,2.22,24.91,1111122 
SCCF RECON,ioos:station:SCCF:13:1,2009-12-08T19:00:00Z,26.5255,-82.0032,2.3,24.45,1111122 
SCCF RECON,ioos:station:SCCF:13:1,2009-12-08T20:00:00Z,26.5255,-82.0032,2.41,24.82,1111122 
SCCF RECON,ioos:station:SCCF:13:1,2009-12-08T21:00:00Z,26.5255,-82.0032,2.469,27.12,1111122 
SCCF RECON,ioos:station:SCCF:13:1,2009-12-08T22:00:00Z,26.5255,-82.0032,2.51,28.06,1111122 
SCCF RECON,ioos:station:SCCF:13:1,2009-12-08T23:00:00Z,26.5255,-82.0032,2.562,30.05,1111122 
SCCF RECON,ioos:station:SCCF:13:1,2009-12-09T00:00:00Z,26.5255,-82.0032,2.58,31.36,1111122 
SCCF RECON,ioos:station:SCCF:13:1,2009-12-09T01:00:00Z,26.5255,-82.0032,2.59,31.79,1111122 
SCCF RECON,ioos:station:SCCF:13:1,2009-12-09T02:00:00Z,26.5255,-82.0032,2.55,31.72,1111122 
SCCF RECON,ioos:station:SCCF:13:1,2009-12-09T03:00:00Z,26.5255,-82.0032,2.48,31.79,1111122 
SCCF RECON,ioos:station:SCCF:13:1,2009-12-09T04:00:00Z,26.5255,-82.0032,2.419,31.01,1111122 
SCCF RECON,ioos:station:SCCF:13:1,2009-12-09T05:00:00Z,26.5255,-82.0032,2.36,28.62,1111122 
SCCF RECON,ioos:station:SCCF:13:1,2009-12-09T06:00:00Z,26.5255,-82.0032,2.33,27.73,1111122 
SCCF RECON,ioos:station:SCCF:13:1,2009-12-09T07:00:00Z,26.5255,-82.0032,2.323,27.19,1111122 
SCCF RECON,ioos:station:SCCF:13:1,2009-12-09T08:00:00Z,26.5255,-82.0032,2.405,26.38,1111122 
SCCF RECON,ioos:station:SCCF:13:1,2009-12-09T09:00:00Z,26.5255,-82.0032,2.48,27.38,1111122 
SCCF RECON,ioos:station:SCCF:13:1,2009-12-09T10:00:00Z,26.5255,-82.0032,2.51,28.75,1111122 
SCCF RECON,ioos:station:SCCF:13:1,2009-12-09T11:00:00Z,26.5255,-82.0032,2.54,29.54,1111122 
SCCF RECON,ioos:station:SCCF:13:1,2009-12-09T12:00:00Z,26.5255,-82.0032,2.58,30.44,1111122 
SCCF RECON,ioos:station:SCCF:13:1,2009-12-09T13:00:00Z,26.5255,-82.0032,2.59,31.17,1111122 
SCCF RECON,ioos:station:SCCF:13:1,2009-12-09T14:00:00Z,26.5255,-82.0032,2.538,31.55,1111122 
SCCF RECON,ioos:station:SCCF:13:1,2009-12-09T15:00:00Z,26.5255,-82.0032,2.46,31.55,1111122 
SCCF RECON,ioos:station:SCCF:13:1,2009-12-09T16:00:00Z,26.5255,-82.0032,2.389,30.32,1111122 
SCCF RECON,ioos:station:SCCF:13:1,2009-12-09T17:00:00Z,26.5255,-82.0032,2.32,28.88,1111122 
SCCF RECON,ioos:station:SCCF:13:1,2009-12-09T18:00:00Z,26.5255,-82.0032,2.28,27.6,1111122 
SCCF RECON,ioos:station:SCCF:13:1,2009-12-09T19:00:00Z,26.5255,-82.0032,2.3,27.32,1111122 
SCCF RECON,ioos:station:SCCF:13:1,2009-12-09T20:00:00Z,26.5255,-82.0032,2.379,26.66,1111122 
SCCF RECON,ioos:station:SCCF:13:1,2009-12-09T21:00:00Z,26.5255,-82.0032,2.46,27.65,1111122 
SCCF RECON,ioos:station:SCCF:13:1,2009-12-09T22:00:00Z,26.5255,-82.0032,2.51,29.26,1111122 
SCCF RECON,ioos:station:SCCF:13:1,2009-12-09T23:00:00Z,26.5255,-82.0032,2.561,29.78,1111122 
SCCF RECON,ioos:station:SCCF:13:1,2009-12-10T00:00:00Z,26.5255,-82.0032,2.62,31.31,1111122 
SCCF RECON,ioos:station:SCCF:13:1,2009-12-10T01:00:00Z,26.5255,-82.0032,2.66,32.23,1111122 
SCCF RECON,ioos:station:SCCF:13:1,2009-12-10T02:00:00Z,26.5255,-82.0032,2.66,32.45,1111122 
SCCF RECON,ioos:station:SCCF:13:1,2009-12-10T03:00:00Z,26.5255,-82.0032,2.59,32.36,1111122 
SCCF RECON,ioos:station:SCCF:13:1,2009-12-10T04:00:00Z,26.5255,-82.0032,2.5,32.39,1111122 
SCCF RECON,ioos:station:SCCF:13:1,2009-12-10T05:00:00Z,26.5255,-82.0032,2.425,31.39,1111122 
SCCF RECON,ioos:station:SCCF:13:1,2009-12-10T06:00:00Z,26.5255,-82.0032,2.351,29.81,1111122 
SCCF RECON,ioos:station:SCCF:13:1,2009-12-10T07:00:00Z,26.5255,-82.0032,2.288,29.05,1111122 
SCCF RECON,ioos:station:SCCF:13:1,2009-12-10T08:00:00Z,26.5255,-82.0032,2.26,27.6,1111122 
SCCF RECON,ioos:station:SCCF:13:1,2009-12-10T09:00:00Z,26.5255,-82.0032,2.301,26.81,1111122 
SCCF RECON,ioos:station:SCCF:13:1,2009-12-10T10:00:00Z,26.5255,-82.0032,2.4,26.42,1111122 
SCCF RECON,ioos:station:SCCF:13:1,2009-12-10T11:00:00Z,26.5255,-82.0032,2.45,27.05,1111122 
SCCF RECON,ioos:station:SCCF:13:1,2009-12-10T12:00:00Z,26.5255,-82.0032,2.481,28.81,1111122 
SCCF RECON,ioos:station:SCCF:13:1,2009-12-10T13:00:00Z,26.5255,-82.0032,2.53,29.13,1111122 
SCCF RECON,ioos:station:SCCF:13:1,2009-12-10T14:00:00Z,26.5255,-82.0032,2.559,30.13,1111122 
SCCF RECON,ioos:station:SCCF:13:1,2009-12-10T15:00:00Z,26.5255,-82.0032,2.551,31.0,1111122 
SCCF RECON,ioos:station:SCCF:13:1,2009-12-10T16:00:00Z,26.5255,-82.0032,2.525,31.56,1111122 
SCCF RECON,ioos:station:SCCF:13:1,2009-12-10T17:00:00Z,26.5255,-82.0032,2.47,31.79,1111122 
SCCF RECON,ioos:station:SCCF:13:1,2009-12-10T18:00:00Z,26.5255,-82.0032,2.41,30.74,1111122 
SCCF RECON,ioos:station:SCCF:13:1,2009-12-10T20:00:00Z,26.5255,-82.0032,2.381,27.87,1111122 
SCCF RECON,ioos:station:SCCF:13:1,2009-12-10T21:00:00Z,26.5255,-82.0032,2.44,27.31,1111122 
SCCF RECON,ioos:station:SCCF:13:1,2009-12-10T22:00:00Z,26.5255,-82.0032,2.55,28.4,1111122 
SCCF RECON,ioos:station:SCCF:13:1,2009-12-10T23:00:00Z,26.5255,-82.0032,2.619,29.72,1111122 
SCCF RECON,ioos:station:SCCF:13:1,2009-12-11T00:00:00Z,26.5255,-82.0032,2.67,30.34,1111122 
SCCF RECON,ioos:station:SCCF:13:1,2009-12-11T01:00:00Z,26.5255,-82.0032,2.66,31.1,1111122 
SCCF RECON,ioos:station:SCCF:13:1,2009-12-11T02:00:00Z,26.5255,-82.0032,2.621,31.64,1111122 
SCCF RECON,ioos:station:SCCF:13:1,2009-12-11T03:00:00Z,26.5255,-82.0032,2.57,31.17,1111122 
SCCF RECON,ioos:station:SCCF:13:1,2009-12-11T04:00:00Z,26.5255,-82.0032,2.49,30.05,1111122 
SCCF RECON,ioos:station:SCCF:13:1,2009-12-11T05:00:00Z,26.5255,-82.0032,2.41,28.33,1111122 
SCCF RECON,ioos:station:SCCF:13:1,2009-12-11T06:00:00Z,26.5255,-82.0032,2.33,26.79,1111122 
SCCF RECON,ioos:station:SCCF:13:1,2009-12-11T07:00:00Z,26.5255,-82.0032,2.24,25.98,1111122 
SCCF RECON,ioos:station:SCCF:13:1,2009-12-11T08:00:00Z,26.5255,-82.0032,2.16,25.02,1111122 
SCCF RECON,ioos:station:SCCF:13:1,2009-12-11T09:00:00Z,26.5255,-82.0032,2.11,24.07,1111122 
SCCF RECON,ioos:station:SCCF:13:1,2009-12-11T10:00:00Z,26.5255,-82.0032,2.1,23.24,1111122 
SCCF RECON,ioos:station:SCCF:13:1,2009-12-11T11:00:00Z,26.5255,-82.0032,2.15,22.79,1111122 
SCCF RECON,ioos:station:SCCF:13:1,2009-12-11T12:00:00Z,26.5255,-82.0032,2.228,22.69,1111122 
SCCF RECON,ioos:station:SCCF:13:1,2009-12-11T13:00:00Z,26.5255,-82.0032,2.312,22.88,1111122 
SCCF RECON,ioos:station:SCCF:13:1,2009-12-11T14:00:00Z,26.5255,-82.0032,2.38,24.31,1111122 
SCCF RECON,ioos:station:SCCF:13:1,2009-12-11T15:00:00Z,26.5255,-82.0032,2.39,25.73,1111122 
SCCF RECON,ioos:station:SCCF:13:1,2009-12-11T16:00:00Z,26.5255,-82.0032,2.377,26.64,1111122 
SCCF RECON,ioos:station:SCCF:13:1,2009-12-11T17:00:00Z,26.5255,-82.0032,2.35,27.67,1111122 
SCCF RECON,ioos:station:SCCF:13:1,2009-12-11T18:00:00Z,26.5255,-82.0032,2.3,29.06,1111122 
SCCF RECON,ioos:station:SCCF:13:1,2009-12-11T19:00:00Z,26.5255,-82.0032,2.28,26.47,1111122 